Zurück zum Katalog

SL-16 DEB

AktivLEO
NORAD 22665·DEBRIS·🇷🇺 Russia

Gestartet Dec 25, 1992 von Baikonur Cosmodrome

Loading…

Nächste Überflüge (nächste 24 Stunden)

TLE

AktuellSource: Space-Track

Epoche: Sep 12, 2026, 17:38 UTC

1 22665U 92093JA  26255.73518534  .00000490  00000-0  31041-3 0  9995
2 22665  71.0782 171.5457 0068536 337.6142  47.3995 14.07672866714154

Verfolge SL-16 DEB in Echtzeit mit AllMySat

Download on the App Store